Time,TemperatureF,DewpointF,PressureIn,WindDirection,WindDirectionDegrees,WindSpeedMPH,WindSpeedGustMPH,Humidity,HourlyPrecipIn,Conditions,Clouds,dailyrainin,SolarRadiationWatts/m^2,SoftwareType,DateUTC
2013-04-09 00:02:00,41.0,19.0,-100.00,SSE,167,5.0,8.0,40,0.00,,,0.00,0.000000,,2013-04-09 06:02:00,
2013-04-09 00:12:00,41.0,19.0,-100.00,SSE,167,5.0,8.0,40,0.00,,,0.00,0.000000,,2013-04-09 06:12:00,
2013-04-09 00:22:00,39.0,22.0,-100.00,South,187,8.0,14.0,50,0.00,,,0.00,0.000000,,2013-04-09 06:22:00,
2013-04-09 00:42:00,39.0,22.0,-100.00,South,187,8.0,14.0,50,0.00,,,0.00,0.000000,,2013-04-09 06:42:00,
2013-04-09 00:52:00,39.0,22.0,-100.00,South,187,8.0,14.0,50,0.00,,,0.00,0.000000,,2013-04-09 06:52:00,
2013-04-09 01:02:00,39.0,22.0,-100.00,South,187,8.0,14.0,50,0.00,,,0.00,0.000000,,2013-04-09 07:02:00,
2013-04-09 01:13:00,39.0,22.0,-100.00,South,187,8.0,14.0,50,0.00,,,0.00,0.000000,,2013-04-09 07:13:00,
2013-04-09 01:22:00,37.0,22.0,-100.00,South,179,6.0,10.0,54,0.00,,,0.00,0.000000,,2013-04-09 07:22:00,
2013-04-09 01:42:00,37.0,22.0,-100.00,South,179,6.0,10.0,54,0.00,,,0.00,0.000000,,2013-04-09 07:42:00,
2013-04-09 01:53:00,37.0,22.0,-100.00,South,179,6.0,10.0,54,0.00,,,0.00,0.000000,,2013-04-09 07:53:00,
2013-04-09 02:03:00,37.0,22.0,-100.00,South,179,6.0,10.0,54,0.00,,,0.00,0.000000,,2013-04-09 08:03:00,
2013-04-09 02:12:00,37.0,22.0,-100.00,South,179,6.0,10.0,54,0.00,,,0.00,0.000000,,2013-04-09 08:12:00,
2013-04-09 02:22:00,36.0,21.0,-100.00,SE,130,4.0,9.0,54,0.00,,,0.00,0.000000,,2013-04-09 08:22:00,
2013-04-09 02:42:00,36.0,21.0,-100.00,SE,130,4.0,9.0,54,0.00,,,0.00,0.000000,,2013-04-09 08:42:00,
2013-04-09 02:52:00,36.0,21.0,-100.00,SE,130,4.0,9.0,54,0.00,,,0.00,0.000000,,2013-04-09 08:52:00,
2013-04-09 03:02:00,36.0,21.0,-100.00,SE,130,4.0,9.0,54,0.00,,,0.00,0.000000,,2013-04-09 09:02:00,
2013-04-09 03:12:00,36.0,21.0,-100.00,SE,130,4.0,9.0,54,0.00,,,0.00,0.000000,,2013-04-09 09:12:00,
2013-04-09 03:22:00,35.0,22.0,-100.00,West,268,1.0,9.0,58,0.00,,,0.00,0.000000,,2013-04-09 09:22:00,
2013-04-09 03:44:00,35.0,22.0,-100.00,West,268,1.0,9.0,58,0.00,,,0.00,0.000000,,2013-04-09 09:44:00,
2013-04-09 03:53:00,35.0,22.0,-100.00,West,268,1.0,9.0,58,0.00,,,0.00,0.000000,,2013-04-09 09:53:00,
2013-04-09 04:03:00,35.0,22.0,-100.00,West,268,1.0,9.0,58,0.00,,,0.00,0.000000,,2013-04-09 10:03:00,
2013-04-09 04:13:00,35.0,22.0,-100.00,West,268,1.0,9.0,58,0.00,,,0.00,0.000000,,2013-04-09 10:13:00,
2013-04-09 04:22:00,31.0,29.0,-100.00,ESE,105,2.0,6.0,94,0.00,,,0.00,0.000000,,2013-04-09 10:22:00,
2013-04-09 04:43:00,31.0,29.0,-100.00,ESE,105,2.0,6.0,94,0.00,,,0.00,0.000000,,2013-04-09 10:43:00,
2013-04-09 05:02:00,31.0,29.0,-100.00,ESE,105,2.0,6.0,94,0.00,,,0.00,0.000000,,2013-04-09 11:02:00,
2013-04-09 05:12:00,31.0,29.0,-100.00,ESE,105,2.0,6.0,94,0.00,,,0.00,0.000000,,2013-04-09 11:12:00,
2013-04-09 05:22:00,29.0,-99.9,-100.00,East,97,2.0,2.0,-999,0.00,,,0.00,0.000000,,2013-04-09 11:22:00,
2013-04-09 05:43:00,29.0,-99.9,-100.00,East,97,2.0,2.0,-999,0.00,,,0.00,0.000000,,2013-04-09 11:43:00,
2013-04-09 05:52:00,29.0,-99.9,-100.00,East,97,2.0,2.0,-999,0.00,,,0.00,0.000000,,2013-04-09 11:52:00,
2013-04-09 06:02:00,29.0,-99.9,-100.00,East,97,2.0,2.0,-999,0.00,,,0.00,0.000000,,2013-04-09 12:02:00,
2013-04-09 06:12:00,29.0,-99.9,-100.00,East,97,2.0,2.0,-999,0.00,,,0.00,0.000000,,2013-04-09 12:12:00,
2013-04-09 06:22:00,30.0,29.0,-100.00,East,101,1.0,4.0,98,0.00,,,0.00,0.000000,,2013-04-09 12:22:00,
2013-04-09 06:43:00,30.0,29.0,-100.00,East,101,1.0,4.0,98,0.00,,,0.00,0.000000,,2013-04-09 12:43:00,
2013-04-09 06:53:00,30.0,29.0,-100.00,East,101,1.0,4.0,98,0.00,,,0.00,0.000000,,2013-04-09 12:53:00,
2013-04-09 07:02:00,30.0,29.0,-100.00,East,101,1.0,4.0,98,0.00,,,0.00,0.000000,,2013-04-09 13:02:00,
2013-04-09 07:12:00,30.0,29.0,-100.00,East,101,1.0,4.0,98,0.00,,,0.00,0.000000,,2013-04-09 13:12:00,
2013-04-09 07:22:00,27.0,-99.9,-100.00,East,83,5.0,9.0,-999,0.00,,,0.00,1.000000,,2013-04-09 13:22:00,
2013-04-09 07:43:00,27.0,-99.9,-100.00,East,83,5.0,9.0,-999,0.00,,,0.00,1.000000,,2013-04-09 13:43:00,
2013-04-09 07:54:00,27.0,-99.9,-100.00,East,83,5.0,9.0,-999,0.00,,,0.00,1.000000,,2013-04-09 13:54:00,
2013-04-09 08:12:00,27.0,-99.9,-100.00,East,83,5.0,9.0,-999,0.00,,,0.00,1.000000,,2013-04-09 14:12:00,
2013-04-09 08:22:00,22.0,22.0,-100.00,East,82,7.0,18.0,99,0.00,,,0.00,36.000000,,2013-04-09 14:22:00,
2013-04-09 08:43:00,22.0,22.0,-100.00,East,82,7.0,18.0,99,0.00,,,0.00,36.000000,,2013-04-09 14:43:00,
2013-04-09 08:52:00,22.0,22.0,-100.00,East,82,7.0,18.0,99,0.00,,,0.00,36.000000,,2013-04-09 14:52:00,
2013-04-09 09:02:00,22.0,22.0,-100.00,East,82,7.0,18.0,99,0.00,,,0.00,36.000000,,2013-04-09 15:02:00,
2013-04-09 09:12:00,22.0,22.0,-100.00,East,82,7.0,18.0,99,0.00,,,0.00,36.000000,,2013-04-09 15:12:00,
2013-04-09 09:22:00,24.0,24.0,-100.00,East,101,6.0,9.0,99,0.00,,,0.00,218.000000,,2013-04-09 15:22:00,
2013-04-09 09:44:00,24.0,24.0,-100.00,East,101,6.0,9.0,99,0.00,,,0.00,218.000000,,2013-04-09 15:44:00,
2013-04-09 09:53:00,24.0,24.0,-100.00,East,101,6.0,9.0,99,0.00,,,0.00,218.000000,,2013-04-09 15:53:00,
2013-04-09 10:03:00,24.0,24.0,-100.00,East,101,6.0,9.0,99,0.00,,,0.00,218.000000,,2013-04-09 16:03:00,
2013-04-09 10:13:00,24.0,24.0,-100.00,East,101,6.0,9.0,99,0.00,,,0.00,218.000000,,2013-04-09 16:13:00,
2013-04-09 10:22:00,23.0,21.0,-100.00,East,99,7.0,12.0,92,0.00,,,0.00,475.000000,,2013-04-09 16:22:00,
2013-04-09 10:43:00,23.0,21.0,-100.00,East,99,7.0,12.0,92,0.00,,,0.00,475.000000,,2013-04-09 16:43:00,
2013-04-09 10:54:00,23.0,21.0,-100.00,East,99,7.0,12.0,92,0.00,,,0.00,475.000000,,2013-04-09 16:54:00,
2013-04-09 11:02:00,23.0,21.0,-100.00,East,99,7.0,12.0,92,0.00,,,0.00,475.000000,,2013-04-09 17:02:00,
2013-04-09 11:12:00,23.0,21.0,-100.00,East,99,7.0,12.0,92,0.00,,,0.00,475.000000,,2013-04-09 17:12:00,
2013-04-09 11:22:00,21.0,19.0,-100.00,ESE,104,8.0,13.0,91,0.00,,,0.00,341.000000,,2013-04-09 17:22:00,
2013-04-09 11:43:00,21.0,19.0,-100.00,ESE,104,8.0,13.0,91,0.00,,,0.00,341.000000,,2013-04-09 17:43:00,
2013-04-09 11:54:00,21.0,19.0,-100.00,ESE,104,8.0,13.0,91,0.00,,,0.00,341.000000,,2013-04-09 17:54:00,
2013-04-09 12:02:00,21.0,19.0,-100.00,ESE,104,8.0,13.0,91,0.00,,,0.00,341.000000,,2013-04-09 18:02:00,
2013-04-09 12:12:00,21.0,19.0,-100.00,ESE,104,8.0,13.0,91,0.00,,,0.00,341.000000,,2013-04-09 18:12:00,
2013-04-09 12:22:00,23.0,20.0,-100.00,ESE,104,7.0,13.0,88,0.00,,,0.00,587.000000,,2013-04-09 18:22:00,
2013-04-09 12:43:00,23.0,20.0,-100.00,ESE,104,7.0,13.0,88,0.00,,,0.00,587.000000,,2013-04-09 18:43:00,
2013-04-09 12:53:00,23.0,20.0,-100.00,ESE,104,7.0,13.0,88,0.00,,,0.00,587.000000,,2013-04-09 18:53:00,
2013-04-09 13:03:00,23.0,20.0,-100.00,ESE,104,7.0,13.0,88,0.00,,,0.00,587.000000,,2013-04-09 19:03:00,
2013-04-09 13:12:00,23.0,20.0,-100.00,ESE,104,7.0,13.0,88,0.00,,,0.00,587.000000,,2013-04-09 19:12:00,
2013-04-09 13:22:00,27.0,16.0,-100.00,ESE,103,7.0,14.0,64,0.00,,,0.00,979.000000,,2013-04-09 19:22:00,
2013-04-09 13:53:00,27.0,16.0,-100.00,ESE,103,7.0,14.0,64,0.00,,,0.00,979.000000,,2013-04-09 19:53:00,
2013-04-09 14:02:00,27.0,16.0,-100.00,ESE,103,7.0,14.0,64,0.00,,,0.00,979.000000,,2013-04-09 20:02:00,
2013-04-09 14:12:00,27.0,16.0,-100.00,ESE,103,7.0,14.0,64,0.00,,,0.00,979.000000,,2013-04-09 20:12:00,
2013-04-09 14:22:00,24.0,17.0,-100.00,East,98,8.0,14.0,75,0.00,,,0.00,630.000000,,2013-04-09 20:22:00,
2013-04-09 14:44:00,24.0,17.0,-100.00,East,98,8.0,14.0,75,0.00,,,0.00,630.000000,,2013-04-09 20:44:00,
2013-04-09 14:53:00,24.0,17.0,-100.00,East,98,8.0,14.0,75,0.00,,,0.00,630.000000,,2013-04-09 20:53:00,
2013-04-09 15:02:00,24.0,17.0,-100.00,East,98,8.0,14.0,75,0.00,,,0.00,630.000000,,2013-04-09 21:02:00,
2013-04-09 15:13:00,24.0,17.0,-100.00,East,98,8.0,14.0,75,0.00,,,0.00,630.000000,,2013-04-09 21:13:00,
2013-04-09 15:22:00,28.0,20.0,-100.00,East,95,7.0,14.0,70,0.00,,,0.00,926.000000,,2013-04-09 21:22:00,
2013-04-09 15:53:00,28.0,20.0,-100.00,East,95,7.0,14.0,70,0.00,,,0.00,926.000000,,2013-04-09 21:53:00,
2013-04-09 16:03:00,28.0,20.0,-100.00,East,95,7.0,14.0,70,0.00,,,0.00,926.000000,,2013-04-09 22:03:00,
2013-04-09 16:13:00,28.0,20.0,-100.00,East,95,7.0,14.0,70,0.00,,,0.00,926.000000,,2013-04-09 22:13:00,
2013-04-09 16:22:00,27.0,18.0,-100.00,East,90,5.0,12.0,67,0.00,,,0.00,759.000000,,2013-04-09 22:22:00,
2013-04-09 16:43:00,27.0,18.0,-100.00,East,90,5.0,12.0,67,0.00,,,0.00,759.000000,,2013-04-09 22:43:00,
2013-04-09 16:53:00,27.0,18.0,-100.00,East,90,5.0,12.0,67,0.00,,,0.00,759.000000,,2013-04-09 22:53:00,
2013-04-09 17:03:00,27.0,18.0,-100.00,East,90,5.0,12.0,67,0.00,,,0.00,759.000000,,2013-04-09 23:03:00,
2013-04-09 17:12:00,27.0,18.0,-100.00,East,90,5.0,12.0,67,0.00,,,0.00,759.000000,,2013-04-09 23:12:00,
2013-04-09 17:22:00,25.0,18.0,-100.00,East,86,5.0,11.0,75,0.00,,,0.00,291.000000,,2013-04-09 23:22:00,
2013-04-09 17:43:00,25.0,18.0,-100.00,East,86,5.0,11.0,75,0.00,,,0.00,291.000000,,2013-04-09 23:43:00,
2013-04-09 17:53:00,25.0,18.0,-100.00,East,86,5.0,11.0,75,0.00,,,0.00,291.000000,,2013-04-09 23:53:00,
2013-04-09 18:03:00,25.0,18.0,-100.00,East,86,5.0,11.0,75,0.00,,,0.00,291.000000,,2013-04-10 00:03:00,
2013-04-09 18:12:00,25.0,18.0,-100.00,East,86,5.0,11.0,75,0.00,,,0.00,291.000000,,2013-04-10 00:12:00,
2013-04-09 18:22:00,24.0,17.0,-100.00,East,99,7.0,10.0,73,0.00,,,0.00,186.000000,,2013-04-10 00:22:00,
2013-04-09 18:43:00,24.0,17.0,-100.00,East,99,7.0,10.0,73,0.00,,,0.00,186.000000,,2013-04-10 00:43:00,
2013-04-09 18:53:00,24.0,17.0,-100.00,East,99,7.0,10.0,73,0.00,,,0.00,186.000000,,2013-04-10 00:53:00,
2013-04-09 19:02:00,24.0,17.0,-100.00,East,99,7.0,10.0,73,0.00,,,0.00,186.000000,,2013-04-10 01:02:00,
2013-04-09 19:12:00,24.0,17.0,-100.00,East,99,7.0,10.0,73,0.00,,,0.00,186.000000,,2013-04-10 01:12:00,
2013-04-09 19:22:00,21.0,17.0,-100.00,ESE,105,7.0,11.0,84,0.00,,,0.00,42.000000,,2013-04-10 01:22:00,
2013-04-09 19:43:00,21.0,17.0,-100.00,ESE,105,7.0,11.0,84,0.00,,,0.00,42.000000,,2013-04-10 01:43:00,
2013-04-09 19:53:00,21.0,17.0,-100.00,ESE,105,7.0,11.0,84,0.00,,,0.00,42.000000,,2013-04-10 01:53:00,
2013-04-09 20:02:00,21.0,17.0,-100.00,ESE,105,7.0,11.0,84,0.00,,,0.00,42.000000,,2013-04-10 02:02:00,
2013-04-09 20:12:00,21.0,17.0,-100.00,ESE,105,7.0,11.0,84,0.00,,,0.00,42.000000,,2013-04-10 02:12:00,
2013-04-09 20:22:00,19.0,16.0,-100.00,ESE,103,4.0,9.0,87,0.00,,,0.00,1.000000,,2013-04-10 02:22:00,
2013-04-09 20:43:00,19.0,16.0,-100.00,ESE,103,4.0,9.0,87,0.00,,,0.00,1.000000,,2013-04-10 02:43:00,
2013-04-09 20:53:00,19.0,16.0,-100.00,ESE,103,4.0,9.0,87,0.00,,,0.00,1.000000,,2013-04-10 02:53:00,
2013-04-09 21:03:00,19.0,16.0,-100.00,ESE,103,4.0,9.0,87,0.00,,,0.00,1.000000,,2013-04-10 03:03:00,
2013-04-09 21:12:00,19.0,16.0,-100.00,ESE,103,4.0,9.0,87,0.00,,,0.00,1.000000,,2013-04-10 03:12:00,
2013-04-09 21:22:00,19.0,17.0,-100.00,SE,130,2.0,5.0,90,0.00,,,0.00,0.000000,,2013-04-10 03:22:00,
2013-04-09 21:43:00,19.0,17.0,-100.00,SE,130,2.0,5.0,90,0.00,,,0.00,0.000000,,2013-04-10 03:43:00,
2013-04-09 21:53:00,19.0,17.0,-100.00,SE,130,2.0,5.0,90,0.00,,,0.00,0.000000,,2013-04-10 03:53:00,
2013-04-09 22:03:00,19.0,17.0,-100.00,SE,130,2.0,5.0,90,0.00,,,0.00,0.000000,,2013-04-10 04:03:00,
2013-04-09 22:13:00,19.0,17.0,-100.00,SE,130,2.0,5.0,90,0.00,,,0.00,0.000000,,2013-04-10 04:13:00,
2013-04-09 22:22:00,17.0,16.0,-100.00,NW,307,2.0,4.0,95,0.00,,,0.00,0.000000,,2013-04-10 04:22:00,
2013-04-09 22:43:00,17.0,16.0,-100.00,NW,307,2.0,4.0,95,0.00,,,0.00,0.000000,,2013-04-10 04:43:00,
2013-04-09 22:53:00,17.0,16.0,-100.00,NW,307,2.0,4.0,95,0.00,,,0.00,0.000000,,2013-04-10 04:53:00,
2013-04-09 23:02:00,17.0,16.0,-100.00,NW,307,2.0,4.0,95,0.00,,,0.00,0.000000,,2013-04-10 05:02:00,
2013-04-09 23:13:00,17.0,16.0,-100.00,NW,307,2.0,4.0,95,0.00,,,0.00,0.000000,,2013-04-10 05:13:00,
2013-04-09 23:22:00,14.0,12.0,-100.00,West,265,2.0,4.0,93,0.00,,,0.00,0.000000,,2013-04-10 05:22:00,
2013-04-09 23:43:00,14.0,12.0,-100.00,West,265,2.0,4.0,93,0.00,,,0.00,0.000000,,2013-04-10 05:43:00,
2013-04-09 23:53:00,14.0,12.0,-100.00,West,265,2.0,4.0,93,0.00,,,0.00,0.000000,,2013-04-10 05:53:00,